Regional Weather Roundup
Issued by NWS Goodland, KS

Home | Current Version | Previous Version | Graphics & Text | Print | Product List | Glossary On
Versions: 1 2 3 4 5 6 7 8 9 10 11 12 13 14 15 16 17 18 19 20 21 22 23 24 25 26 27 28 29 30 31 32 33 34 35 36 37 38 39 40 41 42 43 44 45 46 47 48 49 50
795
ASUS43 KGLD 200659
RWRGLD

GOODLAND FORECAST AREA HOURLY WEATHER ROUNDUP
NATIONAL WEATHER SERVICE GOODLAND KS
100 AM MDT WED SEP 20 2017

...OFFICIAL OBSERVATIONS...

CITY           SKY/WX    TMP DP  RH WIND       PRES   REMARKS
GOODLAND KS    CLEAR     50  34  54 NW9       29.85R
HILL CITY KS   CLEAR     58  40  51 W6        29.77R
IMPERIAL NEB   CLEAR     54  31  41 NW14      29.83R
MCCOOK NEB     CLEAR     56  38  50 W12       29.79R
AKRON CO       CLOUDY    47  28  47 NW12      29.89R
BURLINGTON CO  CLOUDY    47  32  56 NW6       29.88R
LIMON CO       CLOUDY    42  30  62 N9        29.91R
$$

...UNOFFICIAL OBSERVATIONS...

CITY           SKY/WX    TMP DP  RH WIND       PRES   REMARKS
LENORA KS        N/A     58  32  37 MISG        N/A
NORTON KS      CLEAR     55  34  44 W9        29.75R
SHARON SPRINGS   N/A     55  36  49 NW9         N/A
TRENTON NEB      N/A     52  32  46 NW5         N/A
KIT CARSON CO    N/A     51  31  45 MISG        N/A
YUMA CO        FAIR      43  30  61 W7        29.87R
$$




USA.gov is the U.S. government's official web portal to all federal, state and local government web resources and services.